Preview of NWS' New Version of Forecast
This preview is not operational and should not be used for support decisions.
Latest weather observations around

Louisville, Standiford Field (KSDF)

Using English Units (Switch to International System of Units)
Date/ Time (EDT) Wind (mph) Vis. (mi) Weather Sky Cond. Temp (°F) Rel. Humidity Wind Chill (°F) Heat Index (°F) Pressure Precip. (in)
Air Dwpt 6 hour Altimeter (inHg) Sea level (inHg) 1 hr 3 hr 6 hr
Max Min
Sep 15 17:56 5 10 Mostly Cloudy FEW170 BKN200 92 55     29%   90 30.05 30.03      
Sep 15 16:56 NW 8 10 Mostly Cloudy FEW170 BKN200 94 55     27%   92 30.07 30.05      
Sep 15 15:56 SW 5 10 Mostly Cloudy SCT170 BKN250 91 53     28%   89 30.08 30.06      
Sep 15 14:56 5 10 Mostly Cloudy SCT200 BKN250 91 52     27%   88 30.11 30.09      
Sep 15 13:56 Calm 10 Partly Cloudy FEW200 SCT250 89 49     25%   86 30.14 30.12     0
Sep 15 12:56 3 10 Partly Cloudy FEW200 SCT250 88 50     27%   85 30.18 30.16      
Sep 15 11:56 3 10 Partly Cloudy FEW200 SCT250 84 52     33%   82 30.19 30.17      
Sep 15 10:56 ESE 6 10 Partly Cloudy SCT250 79 54     42%   79 30.2 30.18 0 0  
Sep 15 09:56 SE 5 10 Mostly Clear FEW150 FEW250 72 53     51%   71 30.19 30.18      
Sep 15 08:56 SE 7 10 Mostly Clear FEW200 66 54     65%     30.2 30.19      
Sep 15 07:56 SE 5 10 Mostly Clear FEW200 63 53     70%     30.19 30.18      
Sep 15 06:56 Calm 10 Mostly Clear FEW180 65 53     65%     30.18 30.17      
Sep 15 05:56 Calm 10 Clear CLR 64 53     67%     30.18 30.16      
Sep 15 04:56 ESE 3 10 Clear CLR 63 55     75%     30.18 30.17      
Sep 15 03:56 SE 3 10 Mostly Clear FEW200 68 53     59%     30.19 30.17      
Sep 15 02:56 E 3 10 Mostly Clear FEW200 69 53     57%     30.2 30.19      
Sep 15 01:56 Calm 10 Clear CLR 69 53     57%     30.21 30.2      
Sep 15 00:56 Calm 10 Mostly Clear FEW200 73 52     48%   72 30.21 30.19      
Sep 14 23:56 SSE 3 10 Partly Cloudy SCT250 74 52     46%   73 30.21 30.19      
Sep 14 22:56 Calm 10 Partly Cloudy FEW160 SCT250 75 52     45%   74 30.21 30.2      
Sep 14 21:56 ESE 6 10 Partly Cloudy SCT250 75 52     45%   74 30.21 30.2      
Sep 14 20:56 ESE 6 10 Mostly Cloudy BKN250 78 52     40%   77 30.2 30.19      
Sep 14 19:56 ESE 3 10 Mostly Cloudy FEW150 BKN250 81 50     34%   80 30.2 30.19      
Sep 14 18:56 NNE 5 10 Mostly Cloudy FEW150 BKN250 83 52     34%   82 30.2 30.18      
Sep 14 17:56 NNE 8 10 Mostly Cloudy FEW150 BKN250 84 52     33%   82 30.21 30.19      
Sep 14 16:56 N 13 10 Mostly Cloudy FEW150 BKN250 85 48     28%   83 30.22 30.2      
Sep 14 15:56 NE 9 10 Mostly Cloudy FEW150 BKN250 85 46     26%   82 30.23 30.21      
Sep 14 14:56 NNE 5 10 Mostly Cloudy SCT150 BKN250 84 50     31%   82 30.25 30.23      
Sep 14 13:56 NNW 7 10 Mostly Cloudy SCT150 BKN250 82 53     37%   81 30.27 30.25      
Sep 14 12:56 N 7 10 Mostly Cloudy SCT150 BKN250 81 55     41%   81 30.28 30.26      
Sep 14 11:56 E 7 10 Mostly Cloudy SCT150 BKN250 79 57     47%   79 30.29 30.27      
Sep 14 10:56 N 8 10 Partly Cloudy FEW045 SCT150 SCT250 77 56     48%   77 30.31 30.29      
Sep 14 09:56 NE 8 10 Partly Cloudy FEW030 FEW150 SCT180 74 57     56%   74 30.3 30.29      
Sep 14 08:56 NNE 10 10 Partly Cloudy SCT150 SCT180 72 58     61%   72 30.28 30.27      
Sep 14 07:56 N 6 10 Partly Cloudy FEW060 SCT150 SCT250 70 58     66%     30.26 30.24      
Sep 14 06:56 N 9 10 Mostly Cloudy SCT060 BKN200 71 57     61%   71 30.23 30.21      
Sep 14 05:56 N 9 10 Mostly Cloudy BKN055 73 57     57%   73 30.21 30.19      
Sep 14 04:56 N 10 10 Partly Cloudy SCT055 74 57     56%   74 30.19 30.17      
Sep 14 03:56 N 9 10 Partly Cloudy SCT050 74 58     57%   74 30.19 30.17      
Sep 14 02:56 NNW 9 10 Partly Cloudy SCT050 76 57     52%   76 30.18 30.16      
Sep 14 01:56 NNW 8 10 Mostly Clear FEW050 78 59     52%   78 30.17 30.15      
Sep 14 00:56 NW 10 10 Mostly Clear FEW150 79 59     50%   79 30.16 30.14      
Sep 13 23:56 NW 9 10 Mostly Clear FEW150 81 60     49%   82 30.15 30.13      
Sep 13 22:56 NW 6 10 Mostly Clear FEW150 83 63     51%   84 30.14 30.12      
Sep 13 21:56 WNW 14 10 Mostly Clear FEW250 85 66     53%   87 30.13 30.11      
Sep 13 20:56 WNW 8 10 Mostly Clear FEW250 86 66     51%   88 30.09 30.07      
Sep 13 19:56 W 10 10 Mostly Clear FEW065 FEW250 90 64     42%   91 30.07 30.06      
Sep 13 18:56 W 13 10 Mostly Clear FEW065 FEW250 93 64     38%   95 30.06 30.05      
Sep 13 17:56 SW 13 10 Partly Cloudy FEW065 SCT250 95 65     37%   98 30.07 30.05      
Sep 13 16:56   10 Mostly Cloudy FEW060 BKN250 96 66     38%   100 30.08 30.06      
Sep 13 15:56   10 Mostly Cloudy SCT060 BKN250 95 65     37%   98 30.09 30.07      
Sep 13 14:56 W 14 10 Mostly Cloudy SCT055 BKN250 96 67     39%   100 30.1 30.08      
Sep 13 13:56 WSW 13 10 Mostly Cloudy FEW055 BKN250 93 68     44%   97 30.12 30.1      
Sep 13 12:56 SW 14 10 Mostly Cloudy BKN050 94 67     41%   98 30.13 30.11      
Sep 13 11:56 WSW 9 10 Mostly Clear FEW250 92 68     46%   96 30.14 30.12      
Sep 13 10:56 Calm 10 Mostly Clear FEW250 89 68     50%   93 30.14 30.12      
Sep 13 09:56 S 6 10 Clear CLR 84 68     59%   87 30.13 30.11      
Sep 13 08:56 SE 3 9 Mostly Clear FEW250 77 68     74%   78 30.13 30.11      
Sep 13 07:56 Calm 8 Mostly Clear FEW250 74 68     82%   75 30.13 30.11      
Sep 13 06:56 ESE 5 9 Clear CLR 74 67     79%   75 30.11 30.09      
Sep 13 05:56 SE 5 10 Clear CLR 74 67     79%   75 30.11 30.09      
Sep 13 04:56 ESE 6 10 Mostly Clear FEW250 76 68     76%   77 30.11 30.09      
Sep 13 03:56 SE 7 10 Mostly Clear FEW250 76 68     76%   77 30.1 30.08      
Sep 13 02:56 Calm 10 Clear CLR 80 67     64%   82 30.11 30.09      
Sep 13 01:56 Calm 10 Clear CLR 80 67     64%   82 30.11 30.09      
Sep 13 00:56 Calm 10 Clear CLR 82 67     60%   85 30.11 30.09      
Sep 12 23:56 SE 5 10 Clear CLR 82 67     60%   85 30.12 30.1      
Sep 12 22:56 Calm 10 Clear CLR 85 66     53%   87 30.1 30.08      
Sep 12 21:56 Calm 10 Clear CLR 88 66     48%   90 30.1 30.08      
Sep 12 20:56 WNW 5 10 Clear CLR 88 65     47%   90 30.09 30.07      
Sep 12 19:56 WNW 5 10 Mostly Clear FEW060 89 64     44%   90 30.08 30.06      
Sep 12 18:56 NW 5 10 Mostly Clear FEW060 93 64     38%   95 30.08 30.06      
Sep 12 17:56 WNW 9 10 Partly Cloudy SCT060 95 64     36%   97 30.08 30.06      
May 15 13:56 W 6 10 Cloudy SCT060 SCT200 OVC250 86 64     48%   87 29.93 29.91      
May 15 04:56 WSW 6 10 Clear   77 65     66%   78 29.9 29.88      
May 14 23:56 SSW 7 10 Mostly Clear FEW300 82 65     56%   84 29.9 29.88      
May 14 13:56 W 6 10 Partly Cloudy SCT060 89 66     47%   92 30 29.98      
May 14 00:56 SSW 6 10 Mostly Clear FEW250 78 63     60%   78 29.98 29.96      
May 13 04:56 WSW 8 10 Clear CLR 73 62     68%   73 30.02 30      
May 12 03:56 SW 9 10 Clear CLR 75 59     57%   75 30.01 30      
May 12 02:56 SSW 7 10 Mostly Clear FEW200 75 59     57%   75 30.01 29.99      
May 11 22:56 S 9 10 Partly Cloudy SCT200 80 59     49%   81 29.97 29.95      
Jun 12 05:56 SSW 5 10 Partly Cloudy SCT055 SCT300 76 66     71%   77 30.09 30.08      
Jun 11 15:56   10 Mostly Cloudy BKN060 BKN250 89 62     41%   90 30.09 30.08      
Jun 11 07:56 SSE 5 9 Mostly Clear FEW300 70 62     76%     30.13 30.11      
Jun 11 05:56 ESE 5 10 Mostly Clear FEW060 FEW300 67 60     79%     30.09 30.08      
Jun 10 07:56 SE 3 9 Mostly Cloudy BKN300 66 57     73%     30.03 30.02      
Jun 09 19:56 SW 9 10 Mostly Clear FEW250 80 54     41%   80 29.91 29.9      
Jun 09 06:56 SSW 5 10 Mostly Cloudy BKN250 59 53     81%     29.95 29.94      
Notice The following observation data may not be complete
Jun 06 08:56   10 Mostly Cloudy FEW015 SCT035 SCT095 BKN250          %              
Jun 05 19:22   2.5 Thunderstorms and Rain SCT020 BKN040 OVC300 67 62     84%     29.73   0    
Jun 05 18:30 WSW 8 10 Mostly Cloudy FEW049 SCT060 BKN230 BKN300 84 66     55%   86 29.71